Brookings, OR

5:08 AM PST on February 23, 2017 (GMT -0800)
Brookings State

Weather History for KBOK - May, 2013

Change the Weather History Date:

Monday, May 20, 2013

  Actual Average Record
Temperature  
Mean Temperature 58 °F -  
Max Temperature 68 °F 64 °F 86 °F (1947)
Min Temperature 47 °F 47 °F 39 °F (1962)
Degree Days  
Heating Degree Days 8    
Growing Degree Days 8 (Base 50)    
Moisture  
Dew Point 47 °F    
Average Humidity 76    
Maximum Humidity 93    
Minimum Humidity 50    
Precipitation  
Precipitation 0.00 in - - ()
Sea Level Pressure  
Sea Level Pressure 30.12 in    
Wind  
Wind Speed 6 mph (SSE)    
Max Wind Speed 16 mph    
Max Gust Speed 24 mph    
Visibility 8 miles    
Events      
Averages and records for this station are not official NWS values.
T = Trace of Precipitation, MM = Missing Value Source: NWS Daily Summary

Daily Weather History Graph

Daily Weather History Graph

Search for Another Location

Airport or City:

Trip Planner

Search our weather history database for the weather conditions in past years. The results will help you decide how hot, cold, wet, or windy it might be!

Date:

Astronomy

May. 20, 2013 Rise Set
Actual Time 5:51 AM PDT 8:36 PM PDT
Civil Twilight 5:19 AM PDT 9:08 PM PDT
Nautical Twilight 4:38 AM PDT 9:50 PM PDT
Astronomical Twilight 3:51 AM PDT 10:37 PM PDT
Moon 3:45 PM PDT (5/20) 2:54 AM PDT (5/20)
Length of Visible Light 15h 49m
Length of Day
14h 44m
Waxing Gibbous, 76% of the Moon is Illuminated
May 20
Waxing Gibbous
May 24
Full
May 31
Last Quarter
Jun 8
New
Jun 16
First Quarter

Hourly Weather History & Observations

Time (PDT) Temp. Dew Point Humidity Pressure Visibility Wind Dir Wind Speed Gust Speed Precip Events Conditions
12:56 AM 63.0 °F 43.9 °F 50% 30.17 in 10.0 mi NE 10.4 mph 20.7 mph N/A   Clear
1:56 AM 57.9 °F 45.9 °F 64% 30.18 in 10.0 mi North 3.5 mph - N/A   Clear
2:56 AM 56.8 °F 45.9 °F 67% 30.17 in 10.0 mi SE 4.6 mph - N/A   Clear
3:56 AM 50.0 °F 46.9 °F 89% 30.17 in 8.0 mi SE 4.6 mph - N/A   Clear
4:56 AM 48.9 °F 45.9 °F 89% 30.16 in 9.0 mi Calm Calm - N/A   Clear
5:56 AM 47.8 °F 45.9 °F 93% 30.17 in 8.0 mi Calm Calm - N/A   Clear
6:56 AM 47.8 °F 45.9 °F 93% 30.17 in 5.0 mi SE 3.5 mph - N/A   Clear
7:56 AM 52.9 °F 48.9 °F 86% 30.17 in 6.0 mi NW 3.5 mph - N/A   Clear
8:56 AM 56.8 °F 50.0 °F 78% 30.16 in 6.0 mi Calm Calm - N/A   Haze
9:56 AM 54.9 °F 47.8 °F 77% 30.16 in 6.0 mi WNW 3.5 mph - N/A   Haze
10:56 AM 57.9 °F 48.9 °F 72% 30.14 in 10.0 mi WNW 4.6 mph - N/A   Clear
11:56 AM 63.9 °F 47.8 °F 56% 30.12 in 10.0 mi Variable 5.8 mph - N/A   Clear
12:56 PM 61.0 °F 50.0 °F 67% 30.12 in 8.0 mi SSW 4.6 mph - N/A   Clear
1:56 PM 59.9 °F 47.8 °F 64% 30.12 in 10.0 mi SSE 6.9 mph - N/A   Clear
2:56 PM 61.9 °F 48.9 °F 62% 30.10 in 10.0 mi SE 8.1 mph - N/A   Clear
3:56 PM 63.9 °F 50.9 °F 63% 30.09 in 10.0 mi WNW 8.1 mph - N/A   Clear
4:56 PM 61.0 °F 47.8 °F 62% 30.08 in 10.0 mi NNW 16.1 mph 24.2 mph N/A   Clear
5:56 PM 68.0 °F 50.0 °F 52% 30.06 in 10.0 mi SSE 12.7 mph - N/A   Clear
6:56 PM 59.9 °F 45.9 °F 60% 30.07 in 10.0 mi Variable 5.8 mph - N/A   Clear
7:56 PM 54.9 °F 47.8 °F 77% 30.08 in 7.0 mi SSE 6.9 mph - N/A   Clear
8:56 PM 50.9 °F 46.9 °F 86% 30.09 in 8.0 mi SSE 6.9 mph - N/A   Clear
9:56 PM 48.9 °F 46.9 °F 93% 30.11 in 7.0 mi Calm Calm - N/A   Scattered Clouds
10:03 PM 48.2 °F 46.4 °F 93% 30.10 in 7.0 mi Calm Calm - N/A   Mostly Cloudy
10:56 PM 48.9 °F 46.9 °F 93% 30.11 in 6.0 mi SW 3.5 mph - N/A   Overcast
11:46 PM 48.2 °F 46.4 °F 93% 30.08 in 8.0 mi SE 8.1 mph - N/A   Overcast
11:56 PM 48.9 °F 45.9 °F 89% 30.08 in 8.0 mi ESE 8.1 mph - N/A   Overcast